RH
47 19 29 22 22 33 38 31 24 21 19 17 15 36 58 56 47 62 65 58 75 91 92 90 92 93 92 91 92 92 92 91 90 91 92 92 90 90 90 91 91 90 82 79 78 74 77 77 75
32 22 24 25 25 32 30 25 22 20 16 14 14 42 56 64 51 68 72 67 73 90 93 90 93 92 92 91 92 92 91 90 90 91 92 93 92 91 92 93 91 88 81 79 77 73 76 76 76
33 25 30 31 27 27 26 20 19 16 14 14 15 21 46 64 60 63 62 67 81 90 89 90 93 92 92 91 91 92 91 90 90 90 92 92 92 92 93 93 92 86 81 77 74 74 78 78 78
22 20 24 25 23 18 16 15 17 14 12 12 14 36 38 44 55 54 61 68 78 86 88 91 93 93 92 91 91 92 91 90 90 91 92 93 94 94 93 92 92 88 82 77 75 80 83 82 81
23 25 30 29 21 16 12 10 10 12 13 12 14 30 52 47 48 59 65 61 74 89 94 92 92 93 93 91 90 91 90 90 91 91 92 93 94 94 93 92 90 87 84 80 80 84 86 85 82
24 24 30 30 22 14 12 9 8 8 8 9 17 47 54 48 60 61 59 61 73 87 96 94 93 94 93 92 92 92 92 91 91 92 92 93 94 94 94 92 90 87 86 85 85 88 88 87 87
32 31 29 26 20 17 12 10 7 6 6 8 14 30 52 51 59 58 61 60 74 82 92 98 97 94 93 94 94 94 93 93 93 94 94 94 95 95 94 92 90 87 87 89 90 89 89 88 88
28 29 38 23 19 17 10 8 6 9 9 8 7 10 56 52 50 57 61 66 78 82 86 98 95 97 98 98 95 95 94 93 93 94 94 94 94 94 94 93 90 88 88 89 89 89 89 89 89
21 29 32 25 19 16 12 8 7 6 8 6 7 33 42 43 45 55 69 82 84 82 94 97 98 98 91 98 93 95 92 93 94 94 94 95 98 97 95 93 91 89 89 90 90 89 88 88 88
25 31 26 16 15 14 13 11 8 7 8 9 8 10 32 34 33 56 76 86 90 93 92 98 96 97 94 81 92 99 93 98 98 98 98 99 98 98 90 93 90 90 89 90 91 91 90 88 97
22 23 18 16 13 12 11 10 7 8 9 9 10 9 12 23 22 22 37 80 92 90 95 95 94 94 92 90 96 98 100 99 99 98 98 98 94 98 98 99 95 98 91 96 94 96 98 97 98
27 18 16 14 12 14 14 10 8 8 7 7 7 10 8 10 15 17 74 92 94 95 94 94 93 93 95 98 94 94 93 93 95 94 97 98 99 96 98 92 93 98 97 98 97 98 96 96 95
27 21 16 12 12 11 11 10 8 7 6 7 7 8 10 10 11 38 93 89 93 94 91 91 93 93 94 96 89 90 85 88 86 89 92 92 90 95 92 90 92 95 98 96 97 93 91 90 86
21 18 17 13 11 10 10 10 9 8 7 7 9 9 9 10 9 82 96 90 91 90 88 96 94 94 94 93 92 84 80 82 90 81 82 85 85 84 85 88 86 91 90 88 90 86 84 80 74
18 20 16 13 12 10 10 10 9 8 8 8 9 9 10 10 10 29 94 92 92 91 92 89 86 86 84 83 92 95 70 72 74 81 84 87 88 85 89 95 86 87 87 90 93 97 96 96 94
19 20 22 14 12 10 10 10 10 9 9 10 11 10 11 12 11 16 88 90 84 85 83 74 66 77 93 97 92 95 84 89 87 91 95 87 92 94 95 96 96 98 99 98 98 97 99 98 96
25 24 21 16 12 10 10 10 10 8 11 11 12 13 13 13 13 32 81 85 79 79 83 81 72 70 83 96 95 94 88 86 96 97 98 92 92 90 93 95 94 98 98 98 98 99 97 98 97
29 23 20 18 15 13 12 14 11 9 11 14 14 13 15 14 13 36 79 75 78 79 79 78 80 82 89 95 97 95 96 95 96 96 94 93 94 91 94 95 97 98 97 99 98 96 96 97 96
19 18 20 16 12 16 16 12 13 10 11 11 17 14 16 16 15 38 75 70 72 75 82 90 92 96 95 97 95 97 97 96 96 92 89 93 95 93 95 98 95 93 96 98 96 94 91 97 95
18 19 20 17 16 18 18 19 15 12 11 14 19 16 18 21 28 63 73 76 75 80 86 92 91 94 93 98 96 93 96 97 97 97 96 92 93 94 94 94 95 94 99 97 96 93 94 93 95
19 19 20 19 15 19 20 24 23 18 16 16 21 19 23 25 76 79 79 88 86 88 85 96 97 96 95 92 94 95 90 93 94 94 92 91 90 94 96 94 96 96 98 99 97 95 93 93 93
22 16 16 17 20 29 22 30 25 23 18 17 20 23 60 83 88 87 89 92 92 92 91 93 94 95 96 96 94 88 95 96 95 94 83 92 80 83 90 97 98 99 99 98 97 96 95 94 93
21 17 17 17 23 30 28 33 28 26 23 19 22 32 76 84 84 86 84 81 79 87 91 92 91 93 94 92 88 89 88 86 86 85 76 84 82 79 76 81 93 98 98 96 95 94 97 98 97
19 21 21 22 24 34 25 32 33 27 21 22 26 52 74 76 79 78 76 75 84 82 88 88 85 92 84 86 88 88 85 86 86 90 89 87 88 91 86 80 85 87 87 89 93 93 96 99 99
25 26 42 45 41 35 28 34 31 25 24 21 50 67 69 72 72 72 72 74 79 82 83 79 78 87 84 81 83 85 90 92 93 92 92 94 95 96 93 90 90 90 86 83 88 92 93 94 96
32 29 44 49 56 40 27 35 27 22 35 34 51 62 63 64 63 67 70 71 74 78 78 76 74 78 80 80 83 83 88 93 95 91 95 96 95 92 88 86 86 86 87 89 92 96 95 92 96
31 33 25 41 68 60 57 53 36 48 49 56 60 58 62 61 62 61 61 62 64 67 72 72 74 76 78 80 79 83 88 88 91 91 92 94 91 76 84 83 83 80 77 78 81 88 84 85 86
27 22 33 48 81 75 72 71 68 81 81 60 61 60 60 57 55 57 63 62 59 62 68 68 70 73 74 75 76 80 86 87 88 88 90 89 89 84 78 76 77 76 77 76 80 85 83 84 84
32 27 33 46 65 83 76 77 80 90 94 89 71 62 60 63 59 58 54 57 64 67 62 63 66 68 70 73 79 81 85 85 86 87 87 87 86 78 73 72 73 75 78 80 84 86 84 84 81
46 50 38 53 76 68 75 84 78 86 87 92 88 73 66 52 55 52 55 62 62 58 54 59 64 65 68 70 77 82 82 84 85 81 82 85 78 76 75 75 77 78 80 84 85 86 80 80 79
Wind_Speed
4 4 1 4 4 5 5 9 4 13 8 5 3 6 11 2 4 5 4 12 17 15 13 13 13 14 17 19 19 18 17 17 17 17 15 13 12 12 11 11 11 11 12 12 13 12 12 12 12
2 3 3 2 5 1 7 5 16 6 12 12 3 3 4 3 5 8 6 11 17 16 14 12 15 14 15 17 17 17 17 17 18 16 15 15 13 12 11 10 11 12 12 12 11 11 10 10 9
2 1 4 5 4 7 8 6 6 12 10 6 4 5 4 7 3 11 11 21 16 13 12 15 17 14 14 15 16 16 16 16 16 16 15 13 13 12 11 10 10 10 10 11 12 11 9 8 7
1 4 4 4 8 10 11 12 0 9 14 9 5 6 5 8 7 8 16 18 16 12 11 17 18 15 14 15 15 15 16 16 16 16 15 14 12 11 10 10 10 10 10 10 9 9 8 7 6
3 3 1 3 8 8 10 15 9 13 9 14 7 4 5 3 10 21 20 18 16 10 10 13 18 16 14 14 14 14 14 15 15 15 15 13 12 11 11 10 9 8 7 8 9 8 7 6 5
2 3 2 7 7 7 9 12 9 11 15 17 3 6 5 10 18 15 16 17 16 16 11 11 16 17 16 14 13 12 11 13 13 13 13 12 10 9 8 8 8 8 7 7 7 6 5 5 5
6 5 6 6 5 7 11 3 7 17 14 11 7 8 1 9 14 18 16 16 14 14 13 10 10 12 13 13 12 11 11 11 12 11 12 12 11 9 7 6 6 6 7 6 5 5 5 6 5
5 5 4 6 7 10 8 3 7 7 4 3 5 5 6 7 19 16 16 14 14 13 13 13 11 9 8 7 11 10 10 10 11 11 10 10 10 9 8 8 7 7 6 7 7 6 6 6 6
3 2 5 8 8 9 3 6 9 8 1 3 5 7 7 10 10 14 13 10 10 9 9 11 12 12 10 8 9 10 11 9 8 7 8 8 4 5 8 8 7 6 7 8 8 8 7 7 7
6 6 9 8 8 8 2 4 14 6 4 3 5 7 3 5 7 13 15 14 12 11 10 6 9 9 10 9 9 6 7 4 4 5 6 4 5 4 5 6 8 8 7 7 7 7 8 7 4
7 10 7 4 12 11 11 4 5 5 5 3 3 4 1 3 4 8 7 14 14 14 9 7 6 3 5 6 6 4 4 4 4 6 6 5 4 4 3 3 3 4 7 4 5 4 3 3 3
5 5 8 6 9 6 4 3 7 5 8 7 8 4 6 3 4 5 11 16 18 16 13 14 6 9 4 2 6 9 8 8 7 7 8 5 3 4 4 3 4 4 3 4 4 2 3 4 5
7 11 9 9 13 17 5 13 8 10 10 7 9 5 5 3 5 7 14 14 16 20 17 12 8 8 7 4 7 6 7 6 7 7 7 7 5 4 4 4 4 5 4 4 4 4 4 5 4
6 19 18 12 12 14 12 14 9 9 10 8 7 8 7 5 5 10 15 18 14 16 19 13 10 8 8 9 6 4 3 5 4 5 7 7 4 4 5 4 6 4 4 3 2 1 3 4 2
15 12 12 11 9 9 6 15 17 9 8 11 11 10 9 8 7 11 16 19 19 14 16 17 18 18 15 11 5 5 6 5 7 6 7 7 6 5 5 2 3 2 3 5 6 6 5 5 5
6 11 17 15 9 9 11 27 7 9 9 12 11 9 8 9 9 8 17 19 17 16 17 16 15 16 4 5 4 4 3 5 7 5 4 7 6 5 4 3 5 6 3 4 3 2 5 3 5
4 9 6 7 8 8 13 19 8 11 9 12 10 11 9 9 8 6 19 21 20 18 15 15 13 13 10 5 3 2 4 2 2 4 3 6 8 7 5 4 2 5 4 3 4 2 3 2 3
11 5 3 7 5 8 13 10 8 11 9 11 11 11 9 9 11 12 18 18 19 16 13 13 11 11 11 5 4 2 2 3 4 4 2 5 5 6 5 1 3 5 5 3 3 4 2 4 5
8 7 6 6 11 7 9 13 12 17 8 12 10 12 11 11 12 12 18 19 15 11 11 10 10 8 7 3 4 2 4 1 2 5 7 5 4 4 1 4 4 4 4 4 5 3 4 4 2
11 10 9 8 9 7 14 13 12 14 11 10 10 13 11 7 3 9 13 12 14 15 12 8 8 9 8 3 3 3 3 3 4 4 5 3 4 4 3 3 3 5 4 5 5 4 2 1 4
16 15 9 8 14 5 6 8 5 8 7 7 5 5 2 7 12 14 16 14 13 13 14 6 5 6 4 6 4 4 5 4 4 4 3 6 6 2 4 4 4 4 3 3 3 3 3 3 2
17 10 15 15 10 6 6 7 5 5 6 5 6 8 10 16 14 15 15 15 11 9 11 10 8 7 7 7 5 4 4 5 2 2 4 7 9 9 8 7 2 3 2 3 3 2 3 2 4
14 15 16 18 6 4 4 3 8 3 5 4 6 11 6 17 18 16 16 15 12 9 9 9 11 10 9 10 7 8 10 5 4 4 8 7 8 8 9 9 8 5 3 2 2 4 5 3 2
14 12 11 6 6 10 11 8 7 2 6 3 9 15 15 12 17 16 14 13 10 9 10 9 13 9 9 11 8 9 10 7 7 5 5 4 4 5 7 7 6 5 4 3 3 4 4 4 4
14 15 6 4 6 9 8 5 8 6 5 5 17 16 16 13 13 16 15 13 11 10 8 8 11 9 9 11 10 9 10 9 8 6 4 5 3 2 3 3 4 2 2 4 4 4 5 5 4
20 14 7 7 5 4 4 6 5 8 6 1 18 17 21 19 13 13 12 12 11 8 9 8 9 9 8 10 9 7 8 5 4 4 4 4 3 4 2 4 4 5 6 5 5 3 4 5 5
20 19 11 7 3 5 1 4 4 3 5 15 20 19 18 14 16 17 15 13 12 11 8 9 8 8 8 8 7 7 7 7 6 5 4 3 3 3 6 6 6 5 4 3 3 3 5 4 4
23 7 7 1 8 4 2 3 4 6 7 10 18 18 14 16 19 18 16 15 11 11 8 8 7 8 7 8 6 6 6 6 6 5 4 4 4 4 5 3 2 3 3 4 4 4 5 6 5
4 19 1 8 6 8 5 5 3 7 7 3 7 10 20 17 16 17 15 13 9 7 8 8 8 7 7 6 4 6 5 5 5 5 3 4 4 3 2 1 3 4 5 6 5 6 7 8 8
6 3 9 9 4 3 6 4 6 7 14 5 6 6 7 15 17 16 18 15 9 9 10 10 8 8 6 6 5 5 4 4 4 3 2 3 3 1 2 3 4 5 6 6 6 7 8 9 10
Wind_Direction
317 299 174 37 70 70 250 257 220 265 318 273 314 148 113 65 167 199 335 159 135 144 152 155 157 156 148 141 138 137 135 130 125 121 118 112 108 109 114 120 122 122 124 129 133 134 135 135 132
328 309 49 77 107 156 256 234 254 281 252 278 180 146 41 103 94 125 107 147 142 145 150 152 155 160 153 143 140 139 138 135 131 128 130 130 129 128 126 126 130 131 134 137 138 138 142 138 129
277 137 103 147 160 201 235 218 261 277 310 327 299 100 90 129 103 159 148 146 139 149 152 152 151 158 152 145 143 143 141 138 135 133 136 136 135 135 135 134 137 142 146 149 149 149 150 146 136
60 22 11 135 210 250 238 268 165 312 320 314 283 85 69 220 170 140 138 137 135 145 150 150 146 150 150 150 148 149 148 144 142 141 143 143 143 142 144 143 146 149 155 157 156 155 155 156 153
43 67 190 215 243 256 259 264 288 274 251 271 272 171 127 185 122 133 145 139 138 138 144 147 144 144 146 151 154 154 152 146 146 145 148 151 153 153 152 151 148 150 155 160 165 166 166 172 179
16 102 109 223 245 265 287 280 292 269 266 265 256 143 180 143 131 146 140 146 146 144 143 147 143 145 150 154 155 151 150 147 149 149 150 153 156 155 154 155 155 153 160 167 174 178 185 191 207
146 110 214 203 236 275 256 354 279 281 276 239 183 144 88 145 159 152 147 148 146 141 136 134 137 144 145 147 148 151 154 154 151 150 153 153 156 159 161 164 163 166 168 171 178 191 203 216 235
157 119 210 214 225 267 269 291 263 260 270 357 143 150 176 191 160 153 151 148 145 144 144 141 137 130 121 135 147 153 155 157 154 154 153 153 160 162 167 184 190 183 185 182 185 204 217 230 245
144 176 212 223 197 236 341 358 305 287 15 18 315 112 156 147 138 130 134 137 134 128 132 139 143 139 142 146 155 150 153 148 143 148 156 158 156 174 176 178 198 199 197 196 197 206 220 242 256
171 209 220 202 210 250 163 339 303 309 327 31 41 14 96 154 133 130 156 160 143 124 126 130 128 143 152 157 150 141 152 142 148 155 164 170 172 180 196 193 191 202 210 216 222 227 233 225 218
215 229 209 270 237 256 273 274 254 325 310 227 190 180 200 141 154 153 123 170 130 126 111 88 103 134 153 138 134 149 146 155 165 182 178 181 178 188 187 190 209 189 208 210 214 232 239 287 284
256 241 213 246 257 256 219 227 261 200 237 283 299 255 134 180 234 211 111 127 133 130 132 128 126 103 49 83 176 171 177 184 178 185 187 183 187 188 191 188 194 199 198 203 221 234 249 242 235
226 250 253 246 246 257 265 256 226 249 250 261 277 284 279 130 144 84 112 119 138 140 146 152 146 145 132 185 199 202 194 187 187 173 186 190 184 193 180 204 195 196 180 195 202 216 225 221 244
228 234 245 248 250 254 248 264 165 238 244 266 251 255 266 225 178 115 127 140 146 153 150 144 163 155 165 184 221 208 190 191 184 167 196 194 169 177 200 211 205 201 189 195 184 303 307 312 319
234 264 261 239 229 238 200 259 242 206 244 215 247 245 241 231 201 159 152 157 159 171 157 168 167 186 195 198 197 152 206 183 195 188 171 178 191 162 163 197 131 146 132 131 107 94 73 71 91
210 235 248 254 228 246 170 254 236 229 208 234 231 242 236 236 215 165 151 155 163 161 179 169 174 185 166 146 189 213 206 191 207 198 191 169 165 161 156 171 179 156 144 104 91 109 94 104 79
236 245 226 267 199 218 200 252 241 233 210 243 236 236 231 229 222 140 154 158 170 175 180 177 186 192 182 181 201 270 230 178 132 126 117 137 161 174 185 213 46 87 112 149 151 57 84 91 51
223 209 202 199 239 198 241 252 256 258 221 224 231 235 211 212 219 153 160 165 169 176 189 182 176 182 177 159 194 232 271 207 142 109 198 169 165 184 211 166 81 104 98 78 74 109 116 165 173
233 226 240 224 244 228 242 249 241 252 213 241 242 225 213 212 223 140 160 172 162 162 181 191 184 162 152 127 168 187 210 208 102 150 147 146 165 181 144 109 106 88 109 163 164 147 187 233 238
225 223 239 278 259 177 251 249 230 235 234 203 218 202 196 221 103 116 152 146 151 155 164 163 171 153 168 150 164 165 134 93 58 53 49 53 97 129 162 163 160 140 135 158 183 174 205 300 196
217 219 220 229 277 247 259 264 244 235 185 161 193 207 157 173 124 113 118 120 135 147 156 132 108 105 104 151 106 60 63 58 56 30 33 19 47 97 153 168 164 165 154 197 197 231 184 256 264
225 203 227 239 250 244 159 257 260 217 169 157 124 120 119 115 105 108 108 103 109 96 96 94 95 89 73 83 89 95 110 104 75 68 62 56 51 49 45 36 109 130 141 205 230 259 236 230 261
224 225 231 235 215 215 241 94 269 237 183 177 156 98 112 124 122 112 104 102 97 93 101 100 82 69 71 76 79 97 90 86 80 75 77 65 53 50 52 50 51 64 56 354 276 268 243 233 252
215 232 232 232 199 236 237 148 269 197 208 196 96 127 128 113 112 102 101 103 99 105 99 90 94 82 79 86 76 89 102 100 90 70 77 63 58 44 45 51 56 53 50 27 351 334 316 276 260
212 218 238 253 215 225 215 160 215 219 246 195 134 136 122 118 114 118 118 114 109 99 91 92 89 88 83 83 79 81 86 89 94 94 93 94 93 85 73 77 65 38 355 350 350 336 331 323 310
223 215 176 200 171 189 217 203 231 198 179 108 128 140 133 136 129 121 116 111 108 93 87 90 91 91 85 92 88 85 89 88 92 101 107 110 118 131 108 68 47 21 17 12 12 358 339 341 329
226 217 192 124 348 105 244 332 32 10 142 122 134 139 136 133 129 122 117 109 109 105 99 99 92 87 92 99 93 91 101 106 115 113 109 106 89 70 49 50 48 34 23 9 350 316 305 308 288
210 199 176 316 146 156 258 189 201 31 358 146 141 136 132 130 126 122 119 114 109 107 103 94 97 106 111 106 105 111 118 116 113 101 97 95 85 83 83 67 34 326 301 292 289 284 280 281 278
179 207 193 120 151 146 155 251 180 129 79 334 114 139 139 135 132 130 124 105 95 91 91 87 78 76 66 80 95 107 115 117 113 112 115 112 121 127 119 334 311 302 293 285 271 265 264 259 261
297 300 180 172 177 129 143 245 99 135 99 52 64 110 131 126 135 141 112 105 96 93 86 84 76 67 53 55 72 95 112 113 109 115 125 145 155 181 261 284 298 293 286 276 266 265 270 262 266